Location: Berlin
(52.5200°N, 13.4050°E)
Time: 11:40:39
(UTC+01:00)

ISS - Visible Passes

Search period start: 27 January 2021 00:00
Search period end: 06 February 2021 00:00
Orbit: 418 x 421 km, 51.6° (Epoch: 27 January)

Date Brightness Start Highest point End Pass type
(mag) Time Alt. Az. Time Alt. Az. Time Alt. Az.
27 Jan -3.6 18:00:46 10° WSW 18:04:09 71° S 18:06:15 21° E visible
27 Jan -1.6 19:37:32 10° W 19:39:13 27° W 19:39:13 27° W visible
28 Jan -3.8 18:50:12 10° W 18:53:35 75° S 18:53:50 69° SE visible
29 Jan -3.7 18:02:51 10° W 18:06:14 79° S 18:08:28 20° E visible
29 Jan -1.6 19:39:39 10° W 19:41:27 26° WSW 19:41:27 26° WSW visible
30 Jan -3.4 18:52:17 10° W 18:55:37 56° SSW 18:56:06 50° SSE visible
31 Jan -3.5 18:04:55 10° W 18:08:17 67° SSW 18:10:50 16° ESE visible
31 Jan -1.4 19:41:54 10° W 19:43:49 22° WSW 19:43:49 22° WSW visible
01 Feb -2.4 18:54:24 10° W 18:57:31 34° SSW 18:58:36 27° SSE visible
02 Feb -2.8 18:06:58 10° W 18:10:13 44° SSW 18:13:28 10° SE visible
02 Feb -0.9 19:44:42 10° WSW 19:46:25 13° SW 19:46:29 13° SW visible
03 Feb -1.3 18:56:46 10° W 18:59:14 19° SW 19:01:30 11° S visible
04 Feb -1.6 18:09:07 10° W 18:11:59 25° SSW 18:14:50 10° SSE visible
